Погода в Токтарсола

Россия / Республика Марий Эл     56°55′11″N   48°43′22″E
темп.,
°C
ветер,
м/с
пор.,
м/с
влажн.,
%
обл.,
%
осадки,
мм/ч
давл.,
гПа
погр.,
м
28 октября, чт
чт2800:00+3зюз81397100 0.5 1007924
03:00+3зюз71497100 0.6 1006763
06:00+4з81390100 0.1 1006776
09:00+5з71185100 0.3 1008726
12:00+5зюз61084100 0.1 1009774
15:00+6зюз51081100 0.1 1009736
18:00+5з5894100 0.4 1011851
21:00+2ссв81096100 1.4 1014485
29 октября, пт
пт2900:00−1ссв697252 0.1 1018567
03:00−4ссв49795 0.1 1022490
06:00−4с36775 0.0 1024396
09:00−3св2363100 0.0 1027373
12:00−1ююв124698 0.0 1027498
15:000ююз354437 0.0 1027528
18:00−2ююз41057100 0.0 1026298
21:000ююз61355100 0.0 1024448
30 октября, сб
сб3000:00−1ююз71696100 1.0 1021548
03:00+3юз81595100 1.7 1019584
06:00+4зюз81694100 0.0 1018548
09:00+5зюз71597100 0.0 1018627
12:00+7з71388100 0.0 1018668
15:00+7з51187100 0.0 1019456
18:00+6з41093100 0.0 1021292
21:00+6з4994100 0.0 1022232
31 октября, вс
вс3100:00+6з3792100 0.0 1023161
03:00+6з3786100 0.0 1024189
06:00+5зюз479491 0.0 1024174
09:00+5юз5109790 0.0 1023275
12:00+7зюз61191100 0.0 1023442
15:00+8зюз6137845 0.0 1021487
18:00+7зюз6148056 0.0 1021412
21:00+6зюз61484100 0.0 1022365
1 ноября, пн
пн100:00+5зюз6138970 0.0 1022313
03:00+4зюз5129296 0.0 1022274
06:00+3зюз51293100 0.0 1021267
09:00+4зюз61385100 0.0 1021372
12:00+7зюз6137194 0.0 1020527
15:00+7зюз6127254 0.0 1020460
18:00+5зюз5138299 0.0 1020339
21:00+4з51188100 0.0 1021268